Flag for Germany Weather past 2 weeks in Heilbronn, Baden-Württemberg, Germany

Now
61 °F

Passing clouds.


Feels Like: 61 °F
Forecast: 41 / 70 °F
Wind: 5 mph from West

Location: Oehringen

Current Time: Aug 21, 2014 at 1:12:44 PM

Latest Report: Aug 21, 2014 at 12:00 PM


Visibility: 25 mi

Pressure: 30.07 "Hg

Humidity: 59%

Dew point: 46 °F

Location of HeilbronnLocation

Historic Weather in Heilbronn — Graph

°F

Heilbronn temperature yesterday

Maximum temperature yesterday: 65 °F (at 3:00 PM)
Minimum temperature yesterday: 48 °F (at 7:00 AM)
Average temperature yesterday: 57 °F

Past Weeks' High & Low Weather Summary

 TemperatureHumidityPressure
High84 °F (Aug 10, 4:00 PM)96% (Aug 10, 6:00 AM)30.15 "Hg (Aug 10, 6:00 AM)
Low48 °F (Aug 20, 7:00 AM)36% (Aug 6, 6:00 PM)29.66 "Hg (Aug 13, 7:00 PM)
Average63 °F71%29.93 "Hg
* Reported Aug 6 12:00 Noon — Aug 21 12:00 Noon, Heilbronn, Weather by CustomWeather, © 2014

Note: Actual official high and low records may vary slightly from our data, if they occured in-between our weather recording intervals... More about our weather records

Advertising

Heilbronn weather history for previous 24 hours

 ConditionsComfort  
Time TempWeatherWind HumidityBarometerVisibility
12:00 PM
Aug 21
61 °FPassing clouds.5 mph59%30.07 "Hg25 mi
11:00 AM60 °FPassing clouds.3 mph62%30.08 "Hg19 mi
10:00 AM58 °FSunny.6 mph68%30.08 "Hg14 mi
9:00 AM56 °FSunny.2 mph73%30.08 "Hg19 mi
8:00 AM51 °FSunny.1 mph83%30.08 "Hg25 mi
7:00 AM49 °FSunny.1 mph91%30.08 "Hg13 mi
6:00 AM51 °FClear.1 mph87%30.06 "Hg19 mi
5:00 AM52 °FPassing clouds.2 mph85%30.06 "Hg22 mi
4:00 AM53 °FPassing clouds.2 mph82%30.05 "Hg22 mi
3:00 AM53 °FOvercast.1 mph85%30.05 "Hg19 mi
2:00 AM54 °FOvercast.1 mph84%30.05 "Hg22 mi
1:00 AM54 °FOvercast.1 mph81%30.04 "Hg22 mi
12:00 AM55 °FOvercast.1 mph79%30.04 "Hg25 mi
11:00 PM
Aug 20
55 °FOvercast.1 mph81%30.03 "Hg22 mi
10:00 PM57 °FOvercast.1 mph73%30.02 "Hg19 mi
9:00 PM59 °FOvercast.1 mph62%30.01 "Hg28 mi
8:00 PM61 °FOvercast.1 mph54%30.00 "Hg22 mi
7:00 PM62 °FOvercast.2 mph51%30.00 "Hg31 mi
6:00 PM64 °FOvercast.3 mph48%30.00 "Hg31 mi
5:00 PM64 °FOvercast.2 mph46%30.01 "Hg40 mi
4:00 PM63 °FOvercast.3 mph48%30.01 "Hg22 mi
3:00 PM65 °FOvercast.2 mph46%30.02 "Hg19 mi
2:00 PM63 °FOvercast.3 mph49%30.03 "Hg25 mi
1:00 PM62 °FSunny.2 mph47%30.03 "Hg31 mi
Weather by CustomWeather, © 2014

See weather overviewHow to use our weather pages